This demonstration page uses our WeatherBlox Daily Observations layout. Learn more.

Left ArrowRight Arrow

Hourly Observations for January 4, 2020

Temp ( °F °C ) Dew Point ( °F °C ) Humidity (%) Winds ( mph kmh ) Pressure ( in mb ) Visibility ( mi km ) Precip ( " mm )
12:02 am 00:02 Cloudy 47 8.3 47 8.3 100 100 NNW 5 7 29.80 1009 9 14 0.00 0.00
12:14 am 00:14 Cloudy 47 8.3 47 8.3 100 100 NNW 3 6 29.80 1009 8 13 0.00 0.00
12:53 am 00:53 Cloudy 46 7.8 46 7.8 100 100 NW 10 17 29.80 1009 10 16 0.00 0.00
1:08 am 01:08 Cloudy 46 7.8 46 7.8 100 100 NNW 7 11 29.81 1010 7 11 0.00 0.00
1:28 am 01:28 Cloudy with Mist and Fog 45 7.2 45 7.2 100 100 NW 7 11 29.82 1010 3 5 0.00 0.00
1:37 am 01:37 Cloudy with Mist and Fog 45 7.2 45 7.2 100 100 NNW 6 9 29.82 1010 3 4 0.00 0.00
1:53 am 01:53 Cloudy with Mist and Fog 45 7 N/A N/A NNW 3 6 29.79 1009 3 4 0.00 0.00
1:58 am 01:58 Cloudy with Mist and Fog 45 7 N/A N/A NNW 5 7 29.81 1009 3 5 0.00 0.00
2:10 am 02:10 Cloudy with Haze 45 7 N/A N/A NW 6 9 29.82 1010 4 6 0.00 0.00
2:20 am 02:20 Cloudy with Haze 45 7 N/A N/A NW 3 6 29.83 1010 5 8 0.00 0.00
2:30 am 02:30 Cloudy with Haze 45 7 N/A N/A NW 3 6 29.83 1010 6 10 0.00 0.00
2:53 am 02:53 Cloudy with Haze 45 7 N/A N/A NW 5 7 29.81 1010 6 10 0.00 0.00
3:29 am 03:29 Cloudy with Mist and Fog 45 7.2 45 7.2 100 100 WNW 6 9 29.84 1010 5 8 0.00 0.00
3:36 am 03:36 Cloudy with Mist and Fog 44 6.7 44 6.7 100 100 WNW 5 7 29.84 1010 6 10 0.00 0.00
3:53 am 03:53 Cloudy with Mist and Fog 44 6.7 44 6.7 100 100 WNW 5 7 29.82 1010 5 8 0.00 0.00
4:10 am 04:10 Cloudy with Light Rain 44 6.7 44 6.7 100 100 WNW 5 7 29.84 1010 5 8 0.00 0.00
4:30 am 04:30 Cloudy with Light Rain 44 6.7 44 6.7 100 100 WNW 6 9 29.84 1010 3 5 0.00 0.00
4:53 am 04:53 Cloudy with Mist and Fog 44 6.7 44 6.7 100 100 W 3 6 29.83 1010 4 6 0.01 0.25
5:10 am 05:10 Cloudy with Mist and Fog 44 6.7 43 6.1 96 96 W 5 7 29.84 1010 4 6 0.00 0.00
5:41 am 05:41 Cloudy with Light Rain 43 6.1 42 5.6 97 97 NNW 7 11 29.84 1010 2 3 0.00 0.00
5:53 am 05:53 Cloudy with Light Rain 43 6.1 42 5.6 97 97 NW 9 15 29.83 1010 2 3 0.01 0.25
6:06 am 06:06 Cloudy with Mist and Fog 43 6.1 43 6.1 100 100 NW 9 15 29.85 1011 2 3 0.00 0.00
6:14 am 06:14 Cloudy with Light Rain 42 5.6 42 5.6 100 100 NNW 7 11 29.85 1011 2 3 0.00 0.00
6:22 am 06:22 Cloudy with Light Rain 42 5.6 42 5.6 100 100 N 6 9 29.85 1011 2 3 0.01 0.25
6:53 am 06:53 Cloudy with Light Rain 42 5.6 42 5.6 100 100 NNW 9 15 29.84 1011 3 4 0.02 0.51
7:27 am 07:27 Cloudy with Light Rain 41 5 41 5 100 100 NNW 9 15 29.86 1011 3 5 0.01 0.25
7:35 am 07:35 Cloudy with Light Rain 41 5 41 5 100 100 NW 9 15 29.86 1011 3 5 0.02 0.51
7:43 am 07:43 Cloudy with Rain 40 4.4 40 4.4 100 100 NNW 10 17 29.86 1011 3 4 0.03 0.76
7:53 am 07:53 Cloudy with Light Rain 40 4.4 40 4.4 100 100 NW 9 15 29.85 1011 3 5 0.04 1.02
8:35 am 08:35 Cloudy with Light Rain 40 4.4 40 4.4 100 100 WNW 9 15 29.88 1012 8 13 0.00 0.00
8:44 am 08:44 Cloudy with Light Rain 40 4.4 40 4.4 100 100 WNW 10 17 29.89 1012 8 13 0.00 0.00
8:53 am 08:53 Cloudy with Light Rain 39 3.9 39 3.9 100 100 NW 12 19 29.88 1012 5 8 0.01 0.25
9:14 am 09:14 Cloudy 39 3.9 39 3.9 100 100 NW 10 17 29.90 1013 9 14 0.00 0.00
9:22 am 09:22 Cloudy 39 3.9 39 3.9 100 100 NW 12 19 29.90 1013 10 16 0.00 0.00
9:41 am 09:41 Cloudy 39 3.9 39 3.9 100 100 NW 13 20 29.91 1013 10 16 0.00 0.00
9:53 am 09:53 Cloudy 39 3.9 38 3.3 96 96 WNW 8 13 29.90 1013 10 16 0.00 0.00
10:53 am 10:53 Cloudy 39 3.9 35 1.7 86 86 NW 10 17 29.92 1013 9 14 0.00 0.00
11:29 am 11:29 Cloudy 40 4.4 34 1.1 79 79 WNW 12 19 29.93 1014 10 16 0.00 0.00
11:51 am 11:51 Cloudy 39 4 34 1 81 81 WNW 13 20 29.92 1013 10 16 0.00 0.00
11:53 am 11:53 Cloudy 40 4.4 33 0.6 77 77 W 9 15 29.91 1013 10 16 0.00 0.00
12:24 pm 12:24 Cloudy 40 4.4 34 1.1 79 79 WNW 13 20 29.91 1013 10 16 0.00 0.00
12:45 pm 12:45 Cloudy with Rain 38 3.3 34 1.1 86 86 W 15 24 29.93 1013 3 5 0.01 0.25
12:53 pm 12:53 Cloudy with Light Rain 36 2.2 34 1.1 93 93 W 14 22 29.91 1013 3 5 0.01 0.25
1:06 pm 13:06 Cloudy with Light Rain 37 2.8 34 1.1 89 89 WNW 15 24 29.93 1013 6 10 0.01 0.25
1:46 pm 13:46 Cloudy with Light Snow 37 2.8 33 0.6 86 86 W 9 15 29.94 1014 8 13 0.01 0.25
1:53 pm 13:53 Cloudy with Light Rain 37 2.8 34 1.1 89 89 W 10 17 29.92 1013 10 16 0.01 0.25
2:12 pm 14:12 Cloudy with Light Rain 36 2.2 34 1.1 93 93 W 10 17 29.94 1014 7 11 0.00 0.00
2:27 pm 14:27 Cloudy with Light Snow 36 2.2 33 0.6 89 89 WNW 9 15 29.95 1014 9 14 0.01 0.25
2:44 pm 14:44 Cloudy with Light Rain 37 2.8 34 1.1 89 89 W 8 13 29.95 1014 10 16 0.01 0.25
2:53 pm 14:53 Cloudy 37 2.8 34 1.1 89 89 W 8 13 29.93 1014 10 16 0.01 0.25
3:17 pm 15:17 Cloudy 37 2.8 33 0.6 86 86 W 8 13 29.96 1014 10 16 0.00 0.00
3:29 pm 15:29 Cloudy with Light Rain 37 2.8 33 0.6 86 86 WNW 12 19 29.97 1015 10 16 0.00 0.00
3:53 pm 15:53 Cloudy 37 2.8 33 0.6 86 86 W 8 13 29.96 1015 10 16 0.00 0.00
4:14 pm 16:14 Cloudy 37 2.8 33 0.6 86 86 W 9 15 30.00 1016 10 16 0.00 0.00
4:53 pm 16:53 Cloudy 36 2.2 31 -0.6 82 82 WNW 16 26 30.00 1016 10 16 0.00 0.00
5:35 pm 17:35 Cloudy 36 2.2 31 -0.6 82 82 WNW 10 17 30.04 1017 10 16 0.00 0.00
5:53 pm 17:53 Cloudy 36 2.2 31 -0.6 82 82 WNW 12 19 30.03 1017 10 16 0.00 0.00
6:18 pm 18:18 Cloudy 36 2.2 31 -0.6 82 82 WNW 9 15 30.07 1018 10 16 0.00 0.00
6:28 pm 18:28 Cloudy 36 2.2 31 -0.6 82 82 WNW 10 17 30.07 1018 10 16 0.00 0.00
6:53 pm 18:53 Cloudy 36 2.2 30 -1.1 79 79 WNW 17 28 30.07 1018 10 16 0.00 0.00
7:53 pm 19:53 Cloudy 35 1.7 31 -0.6 85 85 W 9 15 30.10 1019 10 16 0.00 0.00
8:10 pm 20:10 Cloudy 35 1.7 31 -0.6 85 85 WNW 10 17 30.13 1020 10 16 0.00 0.00
8:53 pm 20:53 Cloudy 35 1.7 29 -1.7 78 78 WNW 15 24 30.12 1020 10 16 0.00 0.00
9:27 pm 21:27 Cloudy 35 1.7 29 -1.7 78 78 W 14 22 30.15 1021 10 16 0.00 0.00
9:53 pm 21:53 Cloudy 35 1.7 28 -2.2 76 76 WNW 8 13 30.14 1021 10 16 0.00 0.00
10:06 pm 22:06 Cloudy 35 1.7 28 -2.2 76 76 W 9 15 30.17 1022 10 16 0.00 0.00
10:53 pm 22:53 Cloudy 34 1.1 26 -3.3 73 73 W 13 20 30.17 1022 10 16 0.00 0.00
11:53 pm 23:53 Cloudy 34 1.1 25 -3.9 70 70 NW 16 26 30.18 1022 10 16 0.00 0.00

Powered by AerisWeather